Flag for U.S.A. Weather past 2 weeks in Chattanooga, Tennessee, U.S.A.

Now
31 °F

Mostly cloudy.


Feels Like: 20 °F
Forecast: 27 / 37 °F
Wind: 16 mph from North

Location: Lovell Field

Current Time: Mar 5, 2015 at 5:41:50 PM

Latest Report: Mar 5, 2015 at 4:53 PM


Visibility: 10 mi

Pressure: 30.34 "Hg

Humidity: 73%

Dew point: 23 °F

Location of ChattanoogaLocation

Historic Weather in Chattanooga — Graph

°F

Chattanooga temperature yesterday

Maximum temperature yesterday: 73 °F (at 2:53 PM)
Minimum temperature yesterday: 48 °F (at 11:53 PM)
Average temperature yesterday: 63 °F

Past Weeks' High & Low Weather Summary

 TemperatureHumidityPressure
High73 °F (Mar 4, 2:53 PM)100% (Feb 22, 4:53 AM)30.63 "Hg (Feb 22, 4:53 AM)
Low8 °F (Feb 19, 6:53 AM)27% (Feb 20, 1:53 PM)29.79 "Hg (Feb 25, 7:53 PM)
Average37 °F71%30.22 "Hg
* Reported Feb 18 3:53 PM — Mar 5 3:53 PM, Chattanooga, Weather by CustomWeather, © 2015

Note: Actual official high and low records may vary slightly from our data, if they occured in-between our weather recording intervals... More about our weather records

Advertising

Chattanooga weather history for previous 24 hours

 ConditionsComfort  
Time TempWeatherWind HumidityBarometerVisibility
3:53 PM
Thu, Mar 5
32 °FMore clouds than sun.12 mph75%30.29 "Hg10 mi
2:53 PM32 °FCloudy.17 mph75%30.27 "Hg10 mi
1:53 PM34 °FCloudy.15 mph79%30.23 "Hg10 mi
12:53 PM37 °FCloudy.15 mph82%30.18 "Hg10 mi
11:53 AM37 °FLight rain. Cloudy.12 mph89%30.15 "Hg10 mi
10:58 AM37 °FLight rain. Mostly cloudy.13 mph89%30.17 "Hg8 mi
9:53 AM37 °FLight rain. More clouds than sun.10 mph89%30.18 "Hg7 mi
8:53 AM37 °FHeavy rain. Fog.13 mph89%30.11 "Hg2 mi
7:56 AM38 °FRain. Fog.9 mph93%30.06 "Hg2 mi
6:53 AM39 °FLight rain. Overcast.15 mph89%30.00 "Hg7 mi
5:53 AM39 °FLight rain. Mostly cloudy.13 mph89%30.01 "Hg7 mi
5:04 AM40 °FHeavy rain. Fog.10 mph89%30.00 "Hg2 mi
4:53 AM40 °FRain. Fog.12 mph93%29.97 "Hg4 mi
3:53 AM41 °FRain. Mostly cloudy.10 mph89%29.96 "Hg7 mi
2:53 AM42 °FOvercast.8 mph89%29.96 "Hg10 mi
1:53 AM43 °FHeavy rain. Fog.10 mph89%29.96 "Hg4 mi
12:53 AM46 °FOvercast.13 mph83%29.96 "Hg10 mi
11:53 PM
Wed, Mar 4
48 °FOvercast.8 mph80%29.97 "Hg10 mi
10:53 PM50 °FOvercast.8 mph80%29.98 "Hg10 mi
9:53 PM51 °FOvercast.9 mph83%29.94 "Hg10 mi
8:53 PM58 °FLight rain. Fog.10 mph84%29.89 "Hg5 mi
7:53 PM70 °FPartly cloudy.13 mph71%29.82 "Hg10 mi
6:53 PM72 °FPartly cloudy.8 mph66%29.80 "Hg10 mi
5:53 PM73 °FBroken clouds.10 mph66%29.80 "Hg10 mi
Weather by CustomWeather, © 2015

See weather overviewHow to use our weather pages